Location: Allen Generating Plant
(35.0740°N, 90.1490°W)
Time: 17:26:54
(UTC+00:00)

A-11 Canister half - Pass Details

Date: 19 December 2025
Orbit: 1526 x 1682 km, 47.3° (Epoch: 12 January)

Event Time Altitude Azimuth Distance (km) Brightness Sun altitude
Rises 23:38:37 0° 291° (WNW) 4,912 12.4 -9.5°
Reaches altitude 10° 23:43:18 10° 273° (W) 3,899 12.3 -10.4°
Maximum altitude 23:48:59 17° 238° (WSW) 3,333 12.0 -11.5°
Drops below altitude 10° 23:54:36 10° 201° (SSW) 3,822 11.7 -12.5°
Sets 23:59:11 0° 183° (S) 4,773 11.9 -13.4°
